Regional Weather Roundup
Issued by NWS Jackson, KY

Home | Current Version | Previous Version | Graphics & Text | Print | Product List | Glossary On
Versions: 1 2 3 4 5 6 7 8 9 10 11 12 13 14 15 16 17 18 19 20 21 22 23 24 25 26 27 28 29 30 31 32 33 34 35 36 37 38 39 40 41 42 43 44 45 46 47 48 49 50
000
ASUS43 KJKL 250110
RWRJKL

EAST KENTUCKY HOURLY WEATHER ROUNDUP
NATIONAL WEATHER SERVICE JACKSON KY
900 PM EDT FRI MAR 24 2017

NOTE: "FAIR" INDICATES FEW OR NO CLOUDS BELOW 12,000 FEET WITH
NO SIGNIFICANT WEATHER AND/OR OBSTRUCTIONS TO VISIBILITY.

* THESE REPORTS ARE NOT UNDER NWS QUALITY CONTROL AND MAY NOT
  REPORT WEATHER SUCH AS PRECIPITATION AND FOG.

KYZ079-080-083-085-087-088-110-112-115-119-120-250200
...EASTERN KENTUCKY...

CITY           SKY/WX    TMP DP  RH WIND       PRES   REMARKS
JACKSON        CLOUDY    69  48  47 VRB6      30.21R
LONDON         CLEAR     66  47  50 SW9       30.23R
SOMERSET*      PTCLDY    64  46  52 S10G17    30.23R
MONTICELLO*    PTCLDY    65  50  58 VRB7      30.24R
WILLIAMSBURG*  CLEAR     64  48  55 SW8G16    30.25R
MIDDLESBORO*   CLEAR     65  49  56 S3        30.27S
HARLAN APT*    PTCLDY    64  46  52 SW5       30.26S
PIKE CO APT*     N/A     68  48  49 S3        30.22R
BIG SANDY APT* PTCLDY    70  49  46 SW6       30.20R
MOREHEAD APT*  CLOUDY    70  48  46 SW9G16    30.19R
ASHLAND*       PTCLDY    57  52  82 W5        30.14S
$$

KYZ035-036-041-042-044-050-067-078-099-250200
...CENTRAL KENTUCKY...

CITY           SKY/WX    TMP DP  RH WIND       PRES   REMARKS
MT STERLING*   PTCLDY    66  50  55 SW6       30.20R
FLEMING/MASON* CLEAR     65  51  59 SW7       30.17S
DANVILLE*      CLOUDY    64  50  59 S7        30.20R
LEXINGTON      PTCLDY    66  50  56 S7        30.17R
FRANKFORT      MOCLDY    68  50  52 S7        30.14S
LOUISVILLE     CLOUDY    71  50  47 S12       30.11F
GLASGOW*       MOCLDY    68  51  55 S6        30.17R
BOWLING GREEN  MOCLDY    70  53  54 S9        30.15S
$$

KYZ091>093-OHZ055-061-077-WVZ005-015-034-035-042-250200
...SOUTHERN OHIO/WEST VIRGINIA...

CITY           SKY/WX    TMP DP  RH WIND       PRES   REMARKS
COVINGTON      CLOUDY    68  52  56 S12G20    30.11S
COLUMBUS       MOCLDY    68  53  58 S9        30.11R
DAYTON         PTCLDY    67  52  58 SW15      30.10R
WILMINGTON     CLEAR     63  53  70 S8        30.11S
HUNTINGTON     PTCLDY    71  48  43 S6        30.15R
CHARLESTON     CLOUDY    70  46  42 S10       30.17R
PINEVILLE*     PTCLDY    56  46  68 MISG      30.28S
BECKLEY        CLOUDY    62  44  51 S3        30.25S
BLUEFIELD      CLOUDY    62  43  49 S8        30.29R
LOGAN CO APT*    N/A     68  46  45 CALM      30.21S
$$

VAZ002-007-008-TNZ017-027-036-066-071-250200
...SOUTHWEST VIRGINIA/EAST TENNESSEE...

CITY           SKY/WX    TMP DP  RH WIND       PRES   REMARKS
WISE*          PTCLDY    61  45  55 CALM      30.29R
JONESVILLE*      N/A     64  48  55 W5        30.29R
ABINGDON*      CLOUDY    65  46  49 W6        30.27S
BRISTOL        CLOUDY    65  47  52 S7        30.26S
MORRISTOWN*    CLOUDY    66  48  52 W8        30.26R
SEVIERVILLE*   CLOUDY    64  46  52 W6        30.26S
KNOXVILLE      CLOUDY    63  47  55 S6        30.27R
LAFOLLETTE*    CLOUDY    64  48  55 S5        30.29S
OAK RIDGE      CLOUDY    67  47  48 S5        30.27S
CROSSVILLE     PTCLDY    61  47  59 VRB5      30.27S
NASHVILLE      MOCLDY    69  52  54 S12       30.16S
$$

...KEY TO REMARKS...
VSB - VISIBILITY IN MILES
WCI - WIND CHILL INDEX
HX  - HEAT INDEX

$$



USA.gov is the U.S. government's official web portal to all federal, state and local government web resources and services.